Raton, NM

4:27 AM MDT on September 26, 2017 (GMT -0600)
Raton Municipal-Crews

Weather History for KRTN - January, 2013

Change the Weather History Date:

Saturday, January 12, 2013

  Actual Average (KTAD) Record (KTAD)
Temperature  
Mean Temperature 12 °F -  
Max Temperature 26 °F 47 °F 67 °F (1953)
Min Temperature -2 °F 16 °F -32 °F (1963)
Degree Days  
Heating Degree Days 53    
Moisture  
Dew Point 2 °F    
Average Humidity 65    
Maximum Humidity 92    
Minimum Humidity 25    
Precipitation  
Precipitation 0.16 in - - ()
Sea Level Pressure  
Sea Level Pressure 29.93 in    
Wind  
Wind Speed 6 mph (ENE)    
Max Wind Speed 17 mph    
Max Gust Speed -    
Visibility 5 miles    
Events Fog , Snow    
Averages and records for this station are not official NWS values.
T = Trace of Precipitation, MM = Missing Value Source: NWS Daily Summary

Daily Weather History Graph

Daily Weather History Graph

Search for Another Location

Airport or City:

Trip Planner

Search our weather history database for the weather conditions in past years. The results will help you decide how hot, cold, wet, or windy it might be!

Date:

Astronomy

Jan. 12, 2013 Rise Set
Actual Time 7:10 AM MST 5:02 PM MST
Civil Twilight 6:41 AM MST 5:31 PM MST
Nautical Twilight 6:10 AM MST 6:03 PM MST
Astronomical Twilight 5:38 AM MST 6:34 PM MST
Moon 7:33 AM MST (1/12) 6:31 PM MST (1/12)
Length of Visible Light 10h 49m
Length of Day
9h 52m
New Moon, 1% of the Moon is Illuminated
Jan 12
New Moon
Jan 18
First Quarter
Jan 26
Full
Feb 3
Last Quarter
Feb 10
New

Hourly Weather History & Observations

Time (MST) Temp. Windchill Dew Point Humidity Pressure Visibility Wind Dir Wind Speed Gust Speed Precip Events Conditions
12:53 AM 15.1 °F 5.2 °F -9.0 °F 34% 29.85 in 10.0 mi Variable 6.9 mph - N/A   Clear
1:53 AM 12.0 °F - -9.0 °F 39% 29.87 in 10.0 mi Calm Calm - N/A   Clear
2:53 AM 3.0 °F -9.3 °F -9.9 °F 55% 29.92 in 10.0 mi NNE 6.9 mph - N/A   Clear
3:53 AM 1.9 °F -11.8 °F -9.9 °F 58% 29.94 in 10.0 mi North 8.1 mph - N/A   Clear
4:53 AM 3.0 °F -9.3 °F -9.0 °F 57% 29.95 in 10.0 mi North 6.9 mph - N/A   Clear
5:53 AM -0.9 °F -12.7 °F -11.0 °F 62% 29.99 in 10.0 mi ENE 5.8 mph - N/A   Clear
6:53 AM -2.9 °F -16.5 °F -11.0 °F 68% 30.03 in 10.0 mi NNE 6.9 mph - N/A   Clear
7:53 AM 1.0 °F -10.3 °F -9.0 °F 63% 30.05 in 10.0 mi ENE 5.8 mph - N/A   Clear
8:53 AM 6.1 °F -2.8 °F -7.1 °F 55% 30.04 in 10.0 mi NE 4.6 mph - N/A   Clear
9:53 AM 16.0 °F 8.8 °F -7.1 °F 36% 29.99 in 10.0 mi East 4.6 mph - N/A   Clear
10:53 AM 19.9 °F 14.9 °F -11.0 °F 25% 29.97 in 10.0 mi SW 3.5 mph - N/A   Partly Cloudy
11:53 AM 21.9 °F - -6.0 °F 29% 29.94 in 10.0 mi Calm Calm - N/A   Clear
12:53 PM 24.1 °F 16.0 °F -4.0 °F 29% 29.87 in 10.0 mi SSW 6.9 mph - N/A   Clear
1:53 PM 26.1 °F 18.4 °F -4.0 °F 27% 29.87 in 10.0 mi South 6.9 mph - N/A   Clear
2:53 PM 24.1 °F 13.7 °F -4.0 °F 29% 29.92 in 10.0 mi SSE 10.4 mph - N/A   Clear
3:53 PM 24.1 °F 15.2 °F -2.9 °F 31% 29.93 in 10.0 mi South 8.1 mph - N/A   Mostly Cloudy
4:53 PM 19.9 °F 10.1 °F 6.1 °F 55% 29.95 in 10.0 mi SSE 8.1 mph - N/A   Partly Cloudy
5:53 PM 19.9 °F 9.3 °F 3.0 °F 48% 30.00 in 10.0 mi North 9.2 mph - N/A   Overcast
6:31 PM 17.6 °F 2.2 °F 8.6 °F 68% 29.81 in 2.5 mi NNE 17.3 mph - 0.00 in Snow Light Snow
6:53 PM 16.0 °F 2.9 °F 10.9 °F 81% 30.07 in 1.2 mi NNW 11.5 mph - 0.00 in Snow Light Snow
7:18 PM 15.8 °F 4.2 °F 10.4 °F 79% 29.83 in 1.0 mi North 9.2 mph - 0.02 in Snow Light Snow
7:44 PM 15.8 °F 5.1 °F 10.4 °F 79% 29.84 in 1.2 mi North 8.1 mph - 0.03 in Snow Light Snow
7:53 PM 15.1 °F 5.2 °F 10.9 °F 84% 30.08 in 1.2 mi North 6.9 mph - 0.03 in Snow Light Snow
8:20 PM 15.8 °F 6.1 °F 12.2 °F 86% 29.85 in 0.8 mi ENE 6.9 mph - 0.02 in Snow Light Snow
8:53 PM 14.0 °F 3.9 °F 10.9 °F 88% 30.07 in 0.8 mi NE 6.9 mph - 0.04 in Snow Light Snow
8:56 PM 14.0 °F 2.9 °F 10.4 °F 86% 29.85 in 1.0 mi NE 8.1 mph - 0.01 in Snow Light Snow
9:40 PM 14.0 °F 3.9 °F 10.4 °F 86% 29.86 in 0.8 mi ENE 6.9 mph - 0.03 in Snow Light Snow
9:53 PM 12.9 °F 2.6 °F 10.0 °F 88% 30.03 in 1.0 mi East 6.9 mph - 0.04 in Snow Light Snow
10:03 PM 12.2 °F 2.9 °F 10.4 °F 92% 29.86 in 1.2 mi East 5.8 mph - 0.00 in Snow Light Snow
10:21 PM 12.2 °F 4.3 °F 10.4 °F 92% 29.87 in 0.8 mi East 4.6 mph - 0.01 in Snow Light Snow
10:23 PM 12.2 °F 2.9 °F 10.4 °F 92% 29.87 in 1.0 mi East 5.8 mph - 0.01 in Snow Light Snow
10:33 PM 12.2 °F 0.7 °F 8.6 °F 85% 29.87 in 1.8 mi East 8.1 mph - 0.02 in Snow Light Snow
10:47 PM 12.2 °F 0.7 °F 8.6 °F 85% 29.88 in 0.8 mi East 8.1 mph - 0.02 in Snow Light Snow
10:53 PM 12.0 °F 2.7 °F 9.0 °F 88% 30.04 in 0.8 mi ENE 5.8 mph - 0.03 in Snow Light Snow
11:04 PM 12.2 °F 2.9 °F 8.6 °F 85% 29.88 in 0.5 mi ENE 5.8 mph - 0.00 in Fog , Snow Snow
11:13 PM 12.2 °F 1.7 °F 8.6 °F 85% 29.88 in 1.0 mi ENE 6.9 mph - 0.01 in Snow Light Snow
11:53 PM 10.9 °F 2.9 °F 8.1 °F 88% 30.02 in 1.5 mi East 4.6 mph - 0.02 in Snow Light Snow